TimeEST,TemperatureF,Dew PointF,Humidity,Sea Level PressureIn,VisibilityMPH,Wind Direction,Wind SpeedMPH,Gust SpeedMPH,PrecipitationIn,Events,Conditions,WindDirDegrees,DateUTC
12:16 AM,14.0,7.9,77,30.18,10.0,North,5.8,-,N/A,,Overcast,360,2013-03-02 05:16:00
12:36 AM,13.1,7.3,78,30.18,10.0,North,5.8,-,N/A,,Overcast,360,2013-03-02 05:36:00
12:56 AM,12.2,6.6,78,30.18,10.0,North,5.8,-,N/A,,Mostly Cloudy,350,2013-03-02 05:56:00
1:16 AM,12.7,6.8,77,30.18,10.0,North,3.5,-,N/A,,Mostly Cloudy,350,2013-03-02 06:16:00
1:36 AM,12.2,6.4,78,30.17,10.0,North,5.8,-,N/A,,Overcast,350,2013-03-02 06:36:00
1:56 AM,12.9,6.8,77,30.17,10.0,NNW,4.6,-,N/A,,Overcast,340,2013-03-02 06:56:00
2:16 AM,12.7,6.6,77,30.18,10.0,North,8.1,-,N/A,,Overcast,350,2013-03-02 07:16:00
2:36 AM,12.9,6.8,77,30.17,10.0,North,6.9,-,N/A,,Overcast,350,2013-03-02 07:36:00
2:56 AM,12.7,6.3,75,30.16,10.0,North,10.4,-,N/A,,Overcast,350,2013-03-02 07:56:00
3:16 AM,12.7,5.9,74,30.16,10.0,North,6.9,-,N/A,,Overcast,350,2013-03-02 08:16:00
3:37 AM,12.6,5.9,75,30.16,10.0,North,6.9,-,N/A,,Overcast,350,2013-03-02 08:37:00
3:56 AM,12.2,5.9,76,30.16,10.0,North,6.9,-,N/A,,Overcast,350,2013-03-02 08:56:00
4:16 AM,11.8,5.7,76,30.15,10.0,North,6.9,-,N/A,,Overcast,350,2013-03-02 09:16:00
4:37 AM,11.7,5.9,78,30.16,10.0,North,5.8,-,N/A,,Overcast,350,2013-03-02 09:37:00
4:56 AM,11.3,5.9,79,30.16,10.0,North,8.1,-,N/A,,Overcast,350,2013-03-02 09:56:00
5:16 AM,11.3,5.9,79,30.15,10.0,North,6.9,-,N/A,,Overcast,360,2013-03-02 10:16:00
5:36 AM,11.3,6.4,81,30.15,10.0,North,6.9,-,N/A,,Overcast,360,2013-03-02 10:36:00
6:16 AM,11.1,6.1,80,30.15,10.0,North,8.1,-,N/A,,Overcast,350,2013-03-02 11:16:00
6:36 AM,11.1,6.1,80,30.16,10.0,North,5.8,-,N/A,,Overcast,360,2013-03-02 11:36:00
6:56 AM,11.3,6.4,81,30.16,10.0,North,6.9,-,N/A,,Overcast,360,2013-03-02 11:56:00
7:16 AM,11.1,6.3,81,30.16,10.0,North,8.1,-,N/A,,Overcast,350,2013-03-02 12:16:00
7:36 AM,11.1,5.9,80,30.16,10.0,North,8.1,-,N/A,,Overcast,350,2013-03-02 12:36:00
7:56 AM,10.9,5.9,80,30.16,10.0,North,8.1,-,N/A,,Overcast,350,2013-03-02 12:56:00
8:16 AM,10.8,5.9,81,30.16,10.0,North,8.1,-,N/A,,Overcast,350,2013-03-02 13:16:00
8:36 AM,10.9,5.9,80,30.17,10.0,NNW,5.8,-,N/A,,Overcast,340,2013-03-02 13:36:00
8:56 AM,10.8,5.7,80,30.17,10.0,NNW,4.6,-,N/A,,Overcast,340,2013-03-02 13:56:00
9:17 AM,10.9,6.6,83,30.16,10.0,North,9.2,-,N/A,,Overcast,10,2013-03-02 14:17:00
9:36 AM,11.1,6.8,83,30.16,10.0,North,11.5,18.4,N/A,,Overcast,10,2013-03-02 14:36:00
9:56 AM,11.3,6.8,82,30.16,10.0,North,9.2,-,N/A,,Overcast,360,2013-03-02 14:56:00
10:17 AM,11.7,6.8,81,30.15,10.0,North,10.4,18.4,N/A,,Overcast,360,2013-03-02 15:17:00
10:36 AM,12.2,6.8,79,30.16,10.0,North,9.2,-,N/A,,Overcast,360,2013-03-02 15:36:00
10:56 AM,12.2,7.0,80,30.15,10.0,North,9.2,-,N/A,,Overcast,350,2013-03-02 15:56:00
11:16 AM,12.9,7.3,78,30.15,10.0,North,8.1,-,N/A,,Overcast,350,2013-03-02 16:16:00
11:36 AM,13.5,7.3,77,30.15,10.0,North,9.2,-,N/A,,Overcast,350,2013-03-02 16:36:00
11:56 AM,14.0,7.5,75,30.15,10.0,NNW,8.1,-,N/A,,Mostly Cloudy,340,2013-03-02 16:56:00
12:16 PM,14.9,7.7,73,30.14,10.0,North,9.2,-,N/A,,Scattered Clouds,360,2013-03-02 17:16:00
12:36 PM,16.5,8.2,70,30.13,10.0,North,8.1,-,N/A,,Clear,360,2013-03-02 17:36:00
12:56 PM,16.7,8.1,69,30.13,10.0,North,5.8,-,N/A,,Clear,10,2013-03-02 17:56:00
1:16 PM,19.0,8.6,64,30.11,10.0,NW,3.5,-,N/A,,Clear,310,2013-03-02 18:16:00
1:36 PM,20.1,9.3,63,30.11,10.0,Calm,Calm,-,N/A,,Clear,0,2013-03-02 18:36:00
1:57 PM,21.4,9.3,60,30.10,10.0,Calm,Calm,-,N/A,,Clear,0,2013-03-02 18:57:00
2:16 PM,22.1,9.9,59,30.09,10.0,West,4.6,-,N/A,,Clear,270,2013-03-02 19:16:00
2:36 PM,21.6,9.9,61,30.09,10.0,WNW,5.8,-,N/A,,Clear,300,2013-03-02 19:36:00
2:57 PM,23.0,9.9,57,30.08,10.0,NW,4.6,-,N/A,,Clear,310,2013-03-02 19:57:00
3:16 PM,23.4,10.6,58,30.07,10.0,WNW,5.8,-,N/A,,Clear,290,2013-03-02 20:16:00
3:36 PM,23.0,10.2,58,30.07,10.0,WNW,6.9,-,N/A,,Clear,300,2013-03-02 20:36:00
3:56 PM,23.0,10.6,59,30.07,10.0,WNW,5.8,-,N/A,,Clear,290,2013-03-02 20:56:00
4:16 PM,22.6,10.9,61,30.06,10.0,WNW,6.9,-,N/A,,Clear,290,2013-03-02 21:16:00
4:37 PM,22.1,11.8,65,30.06,10.0,WNW,5.8,-,N/A,,Clear,290,2013-03-02 21:37:00
4:56 PM,21.6,12.0,67,30.07,10.0,WNW,5.8,-,N/A,,Clear,290,2013-03-02 21:56:00
5:16 PM,20.8,12.2,69,30.07,10.0,WNW,8.1,-,N/A,,Clear,290,2013-03-02 22:16:00
5:37 PM,20.1,13.1,74,30.07,10.0,WNW,8.1,-,N/A,,Clear,300,2013-03-02 22:37:00
5:56 PM,19.9,13.8,77,30.07,10.0,WNW,6.9,-,N/A,,Clear,300,2013-03-02 22:56:00
6:16 PM,19.2,14.0,80,30.07,10.0,NW,5.8,-,N/A,,Clear,310,2013-03-02 23:16:00
6:36 PM,18.5,14.0,83,30.07,10.0,WNW,8.1,-,N/A,,Clear,300,2013-03-02 23:36:00
6:56 PM,18.1,14.0,84,30.08,10.0,NW,5.8,-,N/A,,Clear,310,2013-03-02 23:56:00
7:17 PM,17.6,13.6,84,30.08,10.0,NW,3.5,-,N/A,,Clear,320,2013-03-03 00:17:00
7:36 PM,17.2,13.3,84,30.08,10.0,NNW,3.5,-,N/A,,Clear,340,2013-03-03 00:36:00
7:56 PM,16.5,12.9,86,30.07,10.0,NNW,3.5,-,N/A,,Clear,340,2013-03-03 00:56:00
8:16 PM,16.3,12.9,86,30.07,10.0,North,3.5,-,N/A,,Clear,350,2013-03-03 01:16:00
8:36 PM,15.6,12.2,86,30.07,10.0,NNW,3.5,-,N/A,,Clear,340,2013-03-03 01:36:00
8:56 PM,14.5,11.3,87,30.07,10.0,Calm,Calm,-,N/A,,Clear,0,2013-03-03 01:56:00
9:16 PM,14.4,11.7,89,30.07,10.0,North,3.5,-,N/A,,Clear,350,2013-03-03 02:16:00
9:36 PM,13.8,11.3,90,30.07,10.0,North,3.5,-,N/A,,Clear,360,2013-03-03 02:36:00
9:56 PM,14.7,10.8,84,30.07,10.0,North,6.9,-,N/A,,Clear,360,2013-03-03 02:56:00
10:16 PM,15.8,9.5,76,30.06,10.0,North,8.1,-,N/A,,Clear,360,2013-03-03 03:16:00
10:36 PM,15.8,9.5,76,30.06,10.0,NNE,4.6,-,N/A,,Clear,20,2013-03-03 03:36:00
10:56 PM,15.4,9.5,77,30.05,10.0,NNE,4.6,-,N/A,,Clear,20,2013-03-03 03:56:00
11:16 PM,15.6,9.3,76,30.05,10.0,NNE,5.8,-,N/A,,Clear,20,2013-03-03 04:16:00
11:36 PM,14.9,8.6,76,30.05,10.0,NNE,5.8,-,N/A,,Clear,20,2013-03-03 04:36:00
11:56 PM,14.4,8.4,77,30.05,10.0,North,4.6,-,N/A,,Clear,10,2013-03-03 04:56:00